ITEST LICJ-DABB

Flight info

Callsign ITEST
Flight time 1h 44m
Altitude 9500
Route D007J
Aircraft PA34/L-VGD/A

Departure

Time 2026-04-21 13:28
Airport Falcone–Borsellino Airport (LICJ)

Arrival

Time 2026-04-21 15:13
Airport Annaba Rabah Bitat Airport (DABB)
Time Latitude Longitude Altitude Speed Heading
2026-04-21 13:21 38.18585 13.10710 48 ft 0 kts 324°
2026-04-21 13:24 38.18593 13.10743 48 ft 5 kts 90°
2026-04-21 13:24 38.18605 13.10830 48 ft 16 kts 84°
2026-04-21 13:24 38.18598 13.10978 48 ft 16 kts 103°
2026-04-21 13:25 38.18583 13.11097 48 ft 13 kts 123°
2026-04-21 13:25 38.18526 13.11234 48 ft 25 kts 102°
2026-04-21 13:25 38.18588 13.11473 48 ft 29 kts 70°
2026-04-21 13:25 38.18611 13.11689 48 ft 22 kts 98°
2026-04-21 13:26 38.18592 13.11865 48 ft 20 kts 121°
2026-04-21 13:26 38.18504 13.11887 48 ft 15 kts 255°
2026-04-21 13:26 38.18485 13.11721 48 ft 19 kts 235°
2026-04-21 13:26 38.18462 13.11489 48 ft 43 kts 277°
2026-04-21 13:27 38.18490 13.10970 48 ft 74 kts 263°
2026-04-21 13:27 38.18344 13.10248 116 ft 90 kts 258°
2026-04-21 13:27 38.18105 13.09441 213 ft 110 kts 242°
2026-04-21 13:27 38.17620 13.08587 353 ft 123 kts 249°
2026-04-21 13:28 38.17532 13.07516 596 ft 124 kts 273°
2026-04-21 13:28 38.17527 13.06429 847 ft 122 kts 273°
2026-04-21 13:28 38.17534 13.05353 1100 ft 122 kts 272°
2026-04-21 13:28 38.17547 13.04277 1375 ft 121 kts 271°
2026-04-21 13:29 38.17563 13.03208 1639 ft 121 kts 270°
2026-04-21 13:29 38.17579 13.02158 1907 ft 119 kts 269°
2026-04-21 13:29 38.17594 13.01113 2155 ft 117 kts 268°
2026-04-21 13:29 38.17610 13.00091 2412 ft 114 kts 267°
2026-04-21 13:30 38.17625 12.99083 2669 ft 113 kts 267°
2026-04-21 13:30 38.17641 12.98087 2927 ft 112 kts 266°
2026-04-21 13:30 38.17656 12.97103 3187 ft 110 kts 266°
2026-04-21 13:30 38.17671 12.96138 3442 ft 108 kts 267°
2026-04-21 13:31 38.17685 12.95189 3676 ft 109 kts 267°
2026-04-21 13:31 38.17699 12.94230 3877 ft 112 kts 268°
2026-04-21 13:31 38.17714 12.93233 4087 ft 114 kts 269°
2026-04-21 13:31 38.17729 12.92216 4302 ft 116 kts 269°
2026-04-21 13:32 38.17745 12.91175 4517 ft 119 kts 270°
2026-04-21 13:32 38.17760 12.90117 4731 ft 121 kts 269°
2026-04-21 13:32 38.17776 12.89045 4941 ft 122 kts 270°
2026-04-21 13:32 38.17792 12.87961 5149 ft 124 kts 270°
2026-04-21 13:33 38.17808 12.86859 5352 ft 125 kts 270°
2026-04-21 13:33 38.17824 12.85743 5560 ft 127 kts 271°
2026-04-21 13:33 38.17840 12.84609 5767 ft 128 kts 271°
2026-04-21 13:33 38.17856 12.83471 5973 ft 129 kts 271°
2026-04-21 13:34 38.17872 12.82324 6180 ft 130 kts 271°
2026-04-21 13:34 38.17888 12.81170 6381 ft 131 kts 271°
2026-04-21 13:34 38.17904 12.80013 6573 ft 131 kts 271°
2026-04-21 13:34 38.17920 12.78848 6768 ft 132 kts 272°
2026-04-21 13:35 38.17936 12.77678 6958 ft 133 kts 271°
2026-04-21 13:35 38.17952 12.76504 7162 ft 133 kts 271°
2026-04-21 13:35 38.17968 12.75321 7351 ft 134 kts 272°
2026-04-21 13:35 38.17984 12.74137 7547 ft 134 kts 272°
2026-04-21 13:36 38.17982 12.72951 7741 ft 134 kts 265°
2026-04-21 13:36 38.17741 12.71820 7929 ft 136 kts 256°
2026-04-21 13:36 38.17483 12.70657 8131 ft 137 kts 257°
2026-04-21 13:36 38.17228 12.69492 8331 ft 137 kts 257°
2026-04-21 13:37 38.16972 12.68328 8529 ft 137 kts 257°
2026-04-21 13:37 38.16716 12.67166 8730 ft 137 kts 257°
2026-04-21 13:37 38.16460 12.66002 8934 ft 137 kts 257°
2026-04-21 13:37 38.16203 12.64834 9127 ft 137 kts 257°
2026-04-21 13:38 38.15945 12.63667 9344 ft 137 kts 257°
2026-04-21 13:38 38.15688 12.62496 9496 ft 141 kts 257°
2026-04-21 13:38 38.15413 12.61245 9514 ft 152 kts 257°
2026-04-21 13:38 38.15120 12.59913 9506 ft 160 kts 257°
2026-04-21 13:39 38.14813 12.58524 9508 ft 166 kts 257°
2026-04-21 13:39 38.14497 12.57096 9506 ft 170 kts 257°
2026-04-21 13:39 38.14176 12.55646 9510 ft 171 kts 257°
2026-04-21 13:39 38.13852 12.54183 9498 ft 173 kts 257°
2026-04-21 13:40 38.13525 12.52708 9492 ft 174 kts 257°
2026-04-21 13:40 38.13197 12.51225 9507 ft 174 kts 257°
2026-04-21 13:40 38.12868 12.49745 9506 ft 174 kts 257°
2026-04-21 13:40 38.12539 12.48261 9507 ft 175 kts 257°
2026-04-21 13:41 38.12209 12.46774 9506 ft 175 kts 257°
2026-04-21 13:41 38.11878 12.45284 9503 ft 175 kts 257°
2026-04-21 13:41 38.11547 12.43793 9507 ft 176 kts 257°
2026-04-21 13:41 38.11214 12.42300 9506 ft 175 kts 257°
2026-04-21 13:42 38.10883 12.40810 9501 ft 176 kts 257°
2026-04-21 13:42 38.10555 12.39337 9506 ft 175 kts 257°
2026-04-21 13:42 38.10223 12.37848 9501 ft 175 kts 256°
2026-04-21 13:42 38.09891 12.36358 9504 ft 175 kts 256°
2026-04-21 13:43 38.09558 12.34868 9506 ft 175 kts 256°
2026-04-21 13:43 38.09226 12.33380 9511 ft 175 kts 256°
2026-04-21 13:43 38.08893 12.31891 9511 ft 175 kts 257°
2026-04-21 13:43 38.08561 12.30405 9511 ft 175 kts 256°
2026-04-21 13:44 38.08228 12.28921 9513 ft 174 kts 256°
2026-04-21 13:44 38.07901 12.27460 9507 ft 171 kts 257°
2026-04-21 13:44 38.07577 12.26013 9496 ft 170 kts 257°
2026-04-21 13:44 38.07255 12.24579 9496 ft 169 kts 256°
2026-04-21 13:45 38.06935 12.23152 9495 ft 167 kts 257°
2026-04-21 13:45 38.06617 12.21736 9494 ft 166 kts 257°
2026-04-21 13:45 38.06300 12.20324 9495 ft 166 kts 257°
2026-04-21 13:45 38.05984 12.18917 9492 ft 166 kts 256°
2026-04-21 13:46 38.05668 12.17511 9506 ft 165 kts 257°
2026-04-21 13:46 38.05352 12.16108 9504 ft 165 kts 257°
2026-04-21 13:46 38.05037 12.14707 9504 ft 165 kts 257°
2026-04-21 13:46 38.04721 12.13307 9504 ft 165 kts 257°
2026-04-21 13:47 38.04406 12.11907 9502 ft 165 kts 257°
2026-04-21 13:47 38.04095 12.10527 9499 ft 165 kts 257°
2026-04-21 13:47 38.03779 12.09128 9503 ft 165 kts 257°
2026-04-21 13:47 38.03463 12.07729 9509 ft 165 kts 256°
2026-04-21 13:48 38.03147 12.06330 9506 ft 165 kts 256°
2026-04-21 13:48 38.02831 12.04935 9504 ft 164 kts 257°
2026-04-21 13:48 38.02516 12.03542 9506 ft 164 kts 257°
2026-04-21 13:48 38.02201 12.02150 9504 ft 164 kts 256°
2026-04-21 13:49 38.01886 12.00759 9505 ft 164 kts 256°
2026-04-21 13:49 38.01570 11.99367 9506 ft 164 kts 256°
2026-04-21 13:49 38.01255 11.97977 9508 ft 164 kts 257°
2026-04-21 13:49 38.00940 11.96587 9504 ft 164 kts 256°
2026-04-21 13:50 38.00624 11.95197 9506 ft 164 kts 256°
2026-04-21 13:50 38.00308 11.93808 9502 ft 164 kts 256°
2026-04-21 13:50 37.99992 11.92419 9510 ft 164 kts 256°
2026-04-21 13:50 37.99676 11.91028 9510 ft 164 kts 256°
2026-04-21 13:51 37.99360 11.89639 9504 ft 164 kts 256°
2026-04-21 13:51 37.99043 11.88250 9504 ft 164 kts 256°
2026-04-21 13:51 37.98727 11.86861 9505 ft 164 kts 256°
2026-04-21 13:51 37.98409 11.85469 9505 ft 164 kts 256°
2026-04-21 13:52 37.98096 11.84097 9512 ft 164 kts 256°
2026-04-21 13:52 37.97775 11.82689 9512 ft 164 kts 256°
2026-04-21 13:52 37.97462 11.81320 9512 ft 164 kts 256°
2026-04-21 13:52 37.97145 11.79931 9512 ft 164 kts 256°
2026-04-21 13:53 37.96827 11.78542 9506 ft 164 kts 256°
2026-04-21 13:53 37.96505 11.77135 9501 ft 164 kts 256°
2026-04-21 13:53 37.96191 11.75765 9506 ft 164 kts 256°
2026-04-21 13:53 37.95873 11.74374 9500 ft 164 kts 256°
2026-04-21 13:54 37.95553 11.72980 9500 ft 164 kts 256°
2026-04-21 13:54 37.95234 11.71592 9502 ft 164 kts 256°
2026-04-21 13:54 37.94916 11.70206 9501 ft 164 kts 256°
2026-04-21 13:54 37.94597 11.68816 9507 ft 164 kts 256°
2026-04-21 13:55 37.94278 11.67430 9506 ft 164 kts 256°
2026-04-21 13:55 37.93959 11.66042 9494 ft 164 kts 256°
2026-04-21 13:55 37.93640 11.64657 9499 ft 164 kts 256°
2026-04-21 13:55 37.93321 11.63271 9501 ft 164 kts 256°
2026-04-21 13:56 37.93003 11.61888 9495 ft 164 kts 256°
2026-04-21 13:56 37.92683 11.60501 9501 ft 164 kts 256°
2026-04-21 13:56 37.92363 11.59116 9503 ft 164 kts 256°
2026-04-21 13:56 37.92044 11.57730 9497 ft 164 kts 256°
2026-04-21 13:57 37.91724 11.56348 9498 ft 164 kts 256°
2026-04-21 13:57 37.91405 11.54965 9499 ft 164 kts 256°
2026-04-21 13:57 37.91085 11.53583 9502 ft 163 kts 256°
2026-04-21 13:57 37.90770 11.52218 9502 ft 163 kts 256°
2026-04-21 13:58 37.90450 11.50838 9502 ft 164 kts 256°
2026-04-21 13:58 37.90130 11.49454 9495 ft 164 kts 256°
2026-04-21 13:58 37.89810 11.48075 9496 ft 163 kts 256°
2026-04-21 13:58 37.89490 11.46695 9502 ft 163 kts 256°
2026-04-21 13:59 37.89170 11.45314 9499 ft 163 kts 256°
2026-04-21 13:59 37.88849 11.43935 9500 ft 163 kts 256°
2026-04-21 13:59 37.88529 11.42554 9494 ft 163 kts 256°
2026-04-21 13:59 37.88207 11.41172 9496 ft 163 kts 256°
2026-04-21 14:00 37.87887 11.39795 9503 ft 163 kts 256°
2026-04-21 14:00 37.87567 11.38419 9503 ft 163 kts 256°
2026-04-21 14:00 37.87246 11.37042 9496 ft 163 kts 256°
2026-04-21 14:00 37.86925 11.35665 9503 ft 163 kts 256°
2026-04-21 14:01 37.86604 11.34287 9504 ft 163 kts 256°
2026-04-21 14:01 37.86283 11.32911 9491 ft 163 kts 256°
2026-04-21 14:01 37.85961 11.31532 9504 ft 163 kts 256°
2026-04-21 14:01 37.85640 11.30155 9505 ft 163 kts 256°
2026-04-21 14:02 37.85426 11.29242 9501 ft 163 kts 256°
2026-04-21 14:02 37.85000 11.27418 9499 ft 163 kts 256°
2026-04-21 14:02 37.84679 11.26044 9499 ft 163 kts 256°
2026-04-21 14:03 37.84034 11.23292 9497 ft 163 kts 256°
2026-04-21 14:03 37.83712 11.21917 9502 ft 163 kts 256°
2026-04-21 14:03 37.83390 11.20545 9493 ft 163 kts 256°
2026-04-21 14:03 37.83068 11.19171 9500 ft 163 kts 256°
2026-04-21 14:04 37.82745 11.17797 9502 ft 163 kts 256°
2026-04-21 14:04 37.82423 11.16424 9496 ft 163 kts 256°
2026-04-21 14:04 37.82101 11.15053 9502 ft 163 kts 256°
2026-04-21 14:04 37.81777 11.13678 9493 ft 163 kts 256°
2026-04-21 14:05 37.81454 11.12305 9496 ft 163 kts 256°
2026-04-21 14:05 37.81131 11.10934 9502 ft 163 kts 256°
2026-04-21 14:05 37.80808 11.09560 9497 ft 163 kts 256°
2026-04-21 14:05 37.80484 11.08188 9502 ft 163 kts 256°
2026-04-21 14:06 37.80161 11.06816 9499 ft 163 kts 256°
2026-04-21 14:06 37.79837 11.05444 9502 ft 163 kts 256°
2026-04-21 14:06 37.79622 11.04535 9502 ft 163 kts 256°
2026-04-21 14:06 37.79194 11.02720 9502 ft 163 kts 256°
2026-04-21 14:07 37.78870 11.01350 9497 ft 163 kts 256°
2026-04-21 14:07 37.78545 10.99978 9501 ft 163 kts 256°
2026-04-21 14:07 37.78221 10.98609 9494 ft 163 kts 256°
2026-04-21 14:07 37.77897 10.97239 9499 ft 163 kts 256°
2026-04-21 14:08 37.77682 10.96331 9501 ft 163 kts 256°
2026-04-21 14:08 37.77357 10.94963 9496 ft 163 kts 256°
2026-04-21 14:08 37.77032 10.93592 9501 ft 163 kts 256°
2026-04-21 14:08 37.76707 10.92222 9494 ft 163 kts 256°
2026-04-21 14:09 37.76382 10.90855 9504 ft 163 kts 256°
2026-04-21 14:09 37.76057 10.89486 9499 ft 162 kts 256°
2026-04-21 14:09 37.75732 10.88117 9495 ft 162 kts 256°
2026-04-21 14:09 37.75406 10.86748 9504 ft 162 kts 256°
2026-04-21 14:10 37.75081 10.85381 9494 ft 162 kts 256°
2026-04-21 14:10 37.74756 10.84015 9501 ft 163 kts 256°
2026-04-21 14:10 37.74430 10.82647 9501 ft 163 kts 256°
2026-04-21 14:10 37.74104 10.81281 9497 ft 163 kts 256°
2026-04-21 14:11 37.73777 10.79912 9498 ft 163 kts 256°
2026-04-21 14:11 37.73455 10.78562 9492 ft 162 kts 256°
2026-04-21 14:11 37.73129 10.77195 9499 ft 162 kts 256°
2026-04-21 14:11 37.72803 10.75831 9499 ft 162 kts 256°
2026-04-21 14:12 37.72476 10.74465 9498 ft 162 kts 256°
2026-04-21 14:12 37.72149 10.73097 9501 ft 162 kts 256°
2026-04-21 14:12 37.71822 10.71731 9498 ft 162 kts 256°
2026-04-21 14:12 37.71495 10.70365 9494 ft 162 kts 256°
2026-04-21 14:13 37.71168 10.69000 9487 ft 162 kts 256°
2026-04-21 14:13 37.70841 10.67636 9499 ft 162 kts 256°
2026-04-21 14:13 37.70514 10.66272 9490 ft 162 kts 255°
2026-04-21 14:13 37.70186 10.64909 9483 ft 162 kts 255°
2026-04-21 14:14 37.69859 10.63546 9487 ft 162 kts 255°
2026-04-21 14:14 37.69532 10.62185 9486 ft 162 kts 255°
2026-04-21 14:14 37.69205 10.60826 9483 ft 162 kts 255°
2026-04-21 14:14 37.68878 10.59465 9473 ft 162 kts 255°
2026-04-21 14:15 37.68551 10.58106 9490 ft 162 kts 255°
2026-04-21 14:15 37.68224 10.56748 9486 ft 162 kts 255°
2026-04-21 14:15 37.67896 10.55389 9485 ft 162 kts 255°
2026-04-21 14:15 37.67568 10.54030 9479 ft 162 kts 255°
2026-04-21 14:16 37.67240 10.52669 9487 ft 162 kts 255°
2026-04-21 14:16 37.66916 10.51328 9484 ft 162 kts 255°
2026-04-21 14:16 37.66588 10.49967 9479 ft 162 kts 255°
2026-04-21 14:16 37.66259 10.48608 9488 ft 162 kts 255°
2026-04-21 14:17 37.65931 10.47251 9490 ft 162 kts 255°
2026-04-21 14:17 37.65602 10.45890 9490 ft 162 kts 255°
2026-04-21 14:17 37.65273 10.44533 9484 ft 162 kts 255°
2026-04-21 14:17 37.64944 10.43173 9485 ft 162 kts 255°
2026-04-21 14:18 37.64614 10.41814 9484 ft 162 kts 255°
2026-04-21 14:18 37.64285 10.40453 9480 ft 162 kts 255°
2026-04-21 14:18 37.63955 10.39094 9483 ft 162 kts 255°
2026-04-21 14:18 37.63625 10.37737 9488 ft 162 kts 255°
2026-04-21 14:19 37.63295 10.36379 9488 ft 162 kts 255°
2026-04-21 14:19 37.62966 10.35022 9488 ft 162 kts 255°
2026-04-21 14:19 37.62635 10.33661 9488 ft 162 kts 255°
2026-04-21 14:19 37.62304 10.32302 9487 ft 162 kts 255°
2026-04-21 14:20 37.61973 10.30943 9487 ft 162 kts 255°
2026-04-21 14:20 37.61642 10.29584 9489 ft 162 kts 255°
2026-04-21 14:20 37.61311 10.28226 9491 ft 162 kts 255°
2026-04-21 14:20 37.60985 10.26888 9485 ft 162 kts 255°
2026-04-21 14:21 37.60654 10.25531 9484 ft 162 kts 255°
2026-04-21 14:21 37.60322 10.24173 9480 ft 162 kts 255°
2026-04-21 14:21 37.59991 10.22815 9482 ft 162 kts 255°
2026-04-21 14:21 37.59659 10.21459 9484 ft 162 kts 255°
2026-04-21 14:22 37.59327 10.20101 9488 ft 162 kts 255°
2026-04-21 14:22 37.58995 10.18743 9483 ft 162 kts 255°
2026-04-21 14:22 37.58663 10.17387 9484 ft 162 kts 255°
2026-04-21 14:22 37.58331 10.16030 9487 ft 162 kts 255°
2026-04-21 14:23 37.57998 10.14675 9488 ft 162 kts 255°
2026-04-21 14:23 37.57666 10.13318 9488 ft 162 kts 255°
2026-04-21 14:23 37.57333 10.11963 9487 ft 162 kts 255°
2026-04-21 14:23 37.57001 10.10607 9478 ft 162 kts 255°
2026-04-21 14:24 37.56668 10.09252 9481 ft 162 kts 255°
2026-04-21 14:24 37.56335 10.07897 9483 ft 162 kts 255°
2026-04-21 14:24 37.56001 10.06542 9485 ft 162 kts 255°
2026-04-21 14:24 37.55668 10.05186 9488 ft 162 kts 255°
2026-04-21 14:25 37.55334 10.03831 9485 ft 162 kts 255°
2026-04-21 14:25 37.55001 10.02478 9485 ft 162 kts 255°
2026-04-21 14:25 37.54668 10.01125 9479 ft 162 kts 255°
2026-04-21 14:25 37.54334 9.99772 9481 ft 162 kts 255°
2026-04-21 14:26 37.54000 9.98417 9481 ft 162 kts 255°
2026-04-21 14:26 37.53669 9.97079 9482 ft 162 kts 255°
2026-04-21 14:26 37.53336 9.95728 9478 ft 162 kts 255°
2026-04-21 14:26 37.53003 9.94380 9488 ft 161 kts 255°
2026-04-21 14:27 37.52670 9.93033 9491 ft 161 kts 255°
2026-04-21 14:27 37.52337 9.91687 9490 ft 161 kts 255°
2026-04-21 14:27 37.52004 9.90341 9479 ft 161 kts 255°
2026-04-21 14:27 37.51671 9.88996 9485 ft 161 kts 255°
2026-04-21 14:28 37.51337 9.87651 9482 ft 161 kts 255°
2026-04-21 14:28 37.51004 9.86306 9487 ft 161 kts 255°
2026-04-21 14:28 37.50670 9.84960 9488 ft 161 kts 255°
2026-04-21 14:28 37.50336 9.83616 9487 ft 161 kts 255°
2026-04-21 14:29 37.50003 9.82273 9475 ft 161 kts 255°
2026-04-21 14:29 37.49673 9.80948 9479 ft 160 kts 255°
2026-04-21 14:29 37.49336 9.79590 9475 ft 160 kts 255°
2026-04-21 14:29 37.49007 9.78269 9474 ft 160 kts 255°
2026-04-21 14:30 37.48674 9.76931 9480 ft 160 kts 255°
2026-04-21 14:30 37.48341 9.75591 9478 ft 160 kts 255°
2026-04-21 14:30 37.48007 9.74254 9478 ft 160 kts 255°
2026-04-21 14:30 37.47674 9.72914 9483 ft 160 kts 255°
2026-04-21 14:31 37.47340 9.71576 9472 ft 160 kts 255°
2026-04-21 14:31 37.47006 9.70237 9477 ft 160 kts 255°
2026-04-21 14:31 37.46671 9.68898 9484 ft 160 kts 255°
2026-04-21 14:31 37.46337 9.67561 9482 ft 160 kts 255°
2026-04-21 14:32 37.46003 9.66222 9478 ft 160 kts 255°
2026-04-21 14:32 37.45668 9.64882 9473 ft 160 kts 255°
2026-04-21 14:32 37.45333 9.63545 9478 ft 160 kts 255°
2026-04-21 14:32 37.44998 9.62208 9478 ft 160 kts 255°
2026-04-21 14:33 37.44663 9.60869 9481 ft 160 kts 255°
2026-04-21 14:33 37.44332 9.59548 9482 ft 160 kts 255°
2026-04-21 14:33 37.43997 9.58212 9474 ft 160 kts 255°
2026-04-21 14:33 37.43662 9.56878 9476 ft 160 kts 255°
2026-04-21 14:34 37.43326 9.55541 9477 ft 160 kts 255°
2026-04-21 14:34 37.42992 9.54208 9469 ft 160 kts 255°
2026-04-21 14:34 37.42656 9.52873 9468 ft 160 kts 255°
2026-04-21 14:34 37.42320 9.51538 9472 ft 160 kts 255°
2026-04-21 14:35 37.41985 9.50203 9477 ft 160 kts 255°
2026-04-21 14:35 37.41649 9.48869 9468 ft 160 kts 255°
2026-04-21 14:35 37.41313 9.47537 9477 ft 160 kts 255°
2026-04-21 14:35 37.40977 9.46203 9474 ft 160 kts 255°
2026-04-21 14:36 37.40640 9.44867 9456 ft 160 kts 255°
2026-04-21 14:36 37.40303 9.43528 9471 ft 160 kts 255°
2026-04-21 14:36 37.39970 9.42209 9471 ft 160 kts 255°
2026-04-21 14:36 37.39632 9.40872 9468 ft 160 kts 255°
2026-04-21 14:37 37.39295 9.39537 9472 ft 160 kts 255°
2026-04-21 14:37 37.38957 9.38199 9468 ft 160 kts 255°
2026-04-21 14:37 37.38619 9.36864 9471 ft 160 kts 255°
2026-04-21 14:37 37.38281 9.35527 9462 ft 160 kts 255°
2026-04-21 14:38 37.37942 9.34189 9472 ft 160 kts 255°
2026-04-21 14:38 37.37603 9.32851 9464 ft 160 kts 255°
2026-04-21 14:38 37.37265 9.31517 9471 ft 160 kts 255°
2026-04-21 14:38 37.36927 9.30184 9462 ft 160 kts 255°
2026-04-21 14:39 37.36588 9.28848 9474 ft 160 kts 255°
2026-04-21 14:39 37.36248 9.27511 9467 ft 161 kts 255°
2026-04-21 14:39 37.35908 9.26173 9458 ft 161 kts 255°
2026-04-21 14:39 37.35568 9.24835 9470 ft 161 kts 255°
2026-04-21 14:40 37.35229 9.23499 9470 ft 160 kts 255°
2026-04-21 14:40 37.34890 9.22168 9471 ft 160 kts 255°
2026-04-21 14:40 37.34552 9.20841 9470 ft 159 kts 255°
2026-04-21 14:40 37.34219 9.19532 9470 ft 159 kts 255°
2026-04-21 14:41 37.33882 9.18208 9467 ft 159 kts 255°
2026-04-21 14:41 37.33544 9.16885 9467 ft 159 kts 255°
2026-04-21 14:41 37.33207 9.15564 9467 ft 159 kts 255°
2026-04-21 14:41 37.32869 9.14240 9466 ft 159 kts 255°
2026-04-21 14:42 37.32532 9.12920 9469 ft 159 kts 255°
2026-04-21 14:42 37.32195 9.11599 9468 ft 159 kts 255°
2026-04-21 14:42 37.31857 9.10276 9468 ft 159 kts 255°
2026-04-21 14:42 37.31518 9.08953 9462 ft 159 kts 255°
2026-04-21 14:43 37.31181 9.07634 9463 ft 158 kts 255°
2026-04-21 14:43 37.30847 9.06331 9463 ft 158 kts 255°
2026-04-21 14:43 37.30510 9.05015 9462 ft 158 kts 255°
2026-04-21 14:43 37.30173 9.03699 9462 ft 158 kts 255°
2026-04-21 14:44 37.29836 9.02385 9462 ft 158 kts 255°
2026-04-21 14:44 37.29499 9.01071 9462 ft 158 kts 255°
2026-04-21 14:44 37.29161 8.99756 9462 ft 158 kts 255°
2026-04-21 14:44 37.28823 8.98440 9462 ft 158 kts 255°
2026-04-21 14:45 37.28485 8.97125 9463 ft 158 kts 255°
2026-04-21 14:45 37.28148 8.95811 9463 ft 158 kts 255°
2026-04-21 14:45 37.27810 8.94499 9457 ft 158 kts 255°
2026-04-21 14:45 37.27472 8.93184 9458 ft 158 kts 255°
2026-04-21 14:46 37.27133 8.91871 9461 ft 158 kts 255°
2026-04-21 14:46 37.26795 8.90559 9460 ft 158 kts 255°
2026-04-21 14:46 37.26457 8.89246 9461 ft 158 kts 255°
2026-04-21 14:46 37.26119 8.87935 9461 ft 158 kts 255°
2026-04-21 14:47 37.25781 8.86623 9460 ft 158 kts 255°
2026-04-21 14:47 37.25442 8.85311 9435 ft 159 kts 255°
2026-04-21 14:47 37.25090 8.83948 9245 ft 168 kts 255°
2026-04-21 14:47 37.24724 8.82528 9056 ft 173 kts 254°
2026-04-21 14:48 37.24348 8.81077 8867 ft 176 kts 254°
2026-04-21 14:48 37.23967 8.79606 8674 ft 178 kts 254°
2026-04-21 14:48 37.23588 8.78140 8484 ft 179 kts 254°
2026-04-21 14:48 37.23201 8.76649 8290 ft 180 kts 254°
2026-04-21 14:49 37.22813 8.75152 8092 ft 180 kts 254°
2026-04-21 14:49 37.22425 8.73654 7897 ft 181 kts 254°
2026-04-21 14:49 37.22036 8.72156 7703 ft 181 kts 253°
2026-04-21 14:49 37.21646 8.70657 7509 ft 180 kts 254°
2026-04-21 14:50 37.21389 8.69667 7381 ft 180 kts 254°
2026-04-21 14:50 37.20869 8.67668 7123 ft 180 kts 254°
2026-04-21 14:50 37.20482 8.66179 6932 ft 180 kts 254°
2026-04-21 14:50 37.20094 8.64689 6743 ft 180 kts 254°
2026-04-21 14:51 37.19706 8.63200 6558 ft 180 kts 253°
2026-04-21 14:51 37.19318 8.61710 6370 ft 180 kts 253°
2026-04-21 14:51 37.18935 8.60243 6167 ft 172 kts 253°
2026-04-21 14:51 37.18571 8.58845 5952 ft 166 kts 253°
2026-04-21 14:52 37.18216 8.57486 5737 ft 162 kts 253°
2026-04-21 14:52 37.17867 8.56147 5529 ft 161 kts 253°
2026-04-21 14:52 37.17519 8.54816 5318 ft 160 kts 253°
2026-04-21 14:52 37.17179 8.53512 5127 ft 159 kts 253°
2026-04-21 14:53 37.16833 8.52193 4928 ft 158 kts 253°
2026-04-21 14:53 37.16492 8.50888 4735 ft 157 kts 253°
2026-04-21 14:53 37.16152 8.49591 4531 ft 156 kts 253°
2026-04-21 14:53 37.15814 8.48299 4340 ft 156 kts 253°
2026-04-21 14:54 37.15475 8.47005 4138 ft 156 kts 253°
2026-04-21 14:54 37.15136 8.45713 3939 ft 156 kts 253°
2026-04-21 14:54 37.14797 8.44420 3742 ft 156 kts 253°
2026-04-21 14:54 37.14458 8.43127 3548 ft 156 kts 253°
2026-04-21 14:55 37.14117 8.41830 3359 ft 157 kts 253°
2026-04-21 14:55 37.13776 8.40531 3165 ft 157 kts 253°
2026-04-21 14:55 37.13434 8.39232 2970 ft 157 kts 253°
2026-04-21 14:55 37.13091 8.37928 2775 ft 158 kts 253°
2026-04-21 14:56 37.12747 8.36621 2577 ft 159 kts 254°
2026-04-21 14:56 37.12406 8.35324 2499 ft 152 kts 254°
2026-04-21 14:56 37.12083 8.34102 2496 ft 143 kts 254°
2026-04-21 14:56 37.11778 8.32942 2490 ft 137 kts 254°
2026-04-21 14:57 37.11481 8.31816 2496 ft 134 kts 254°
2026-04-21 14:57 37.11288 8.31085 2490 ft 133 kts 254°
2026-04-21 14:57 37.10999 8.29987 2488 ft 132 kts 254°
2026-04-21 14:57 37.10618 8.28542 2493 ft 132 kts 254°
2026-04-21 14:58 37.10330 8.27453 2493 ft 132 kts 255°
2026-04-21 14:58 37.10042 8.26362 2497 ft 132 kts 255°
2026-04-21 14:58 37.09851 8.25641 2495 ft 131 kts 254°
2026-04-21 14:58 37.09565 8.24560 2496 ft 131 kts 254°
2026-04-21 14:59 37.09182 8.23109 2493 ft 131 kts 254°
2026-04-21 14:59 37.08993 8.22395 2494 ft 130 kts 254°
2026-04-21 14:59 37.08707 8.21316 2497 ft 131 kts 254°
2026-04-21 14:59 37.08420 8.20230 2495 ft 132 kts 253°
2026-04-21 15:00 37.08131 8.19142 2500 ft 131 kts 254°
2026-04-21 15:00 37.07844 8.18060 2497 ft 131 kts 254°
2026-04-21 15:00 37.07557 8.16976 2498 ft 131 kts 254°
2026-04-21 15:00 37.07270 8.15896 2500 ft 130 kts 254°
2026-04-21 15:01 37.06985 8.14822 2501 ft 130 kts 254°
2026-04-21 15:01 37.06704 8.13762 2500 ft 130 kts 254°
2026-04-21 15:01 37.06420 8.12694 2497 ft 129 kts 254°
2026-04-21 15:01 37.06138 8.11632 2498 ft 129 kts 255°
2026-04-21 15:02 37.05856 8.10570 2494 ft 129 kts 254°
2026-04-21 15:02 37.05572 8.09503 2496 ft 130 kts 254°
2026-04-21 15:02 37.05287 8.08429 2503 ft 130 kts 254°
2026-04-21 15:02 37.05000 8.07353 2504 ft 131 kts 254°
2026-04-21 15:03 37.04712 8.06269 2506 ft 131 kts 255°
2026-04-21 15:03 37.04424 8.05191 2502 ft 130 kts 255°
2026-04-21 15:03 37.04139 8.04119 2505 ft 129 kts 254°
2026-04-21 15:03 37.03855 8.03053 2501 ft 129 kts 254°
2026-04-21 15:04 37.03572 8.01993 2492 ft 128 kts 254°
2026-04-21 15:04 37.03289 8.00933 2497 ft 128 kts 255°
2026-04-21 15:04 37.03006 7.99874 2496 ft 129 kts 254°
2026-04-21 15:04 37.02724 7.98815 2502 ft 130 kts 254°
2026-04-21 15:05 37.02437 7.97741 2501 ft 130 kts 255°
2026-04-21 15:05 37.01859 7.95581 2502 ft 131 kts 253°
2026-04-21 15:05 37.01571 7.94502 2499 ft 130 kts 253°
2026-04-21 15:06 37.01283 7.93427 2501 ft 130 kts 253°
2026-04-21 15:06 37.00995 7.92351 2502 ft 130 kts 253°
2026-04-21 15:06 37.00707 7.91274 2504 ft 131 kts 253°
2026-04-21 15:06 37.00418 7.90198 2505 ft 130 kts 253°
2026-04-21 15:07 37.00129 7.89120 2496 ft 131 kts 253°
2026-04-21 15:07 36.99840 7.88041 2507 ft 131 kts 253°
2026-04-21 15:07 36.99551 7.86962 2499 ft 131 kts 253°
2026-04-21 15:07 36.99263 7.85888 2497 ft 130 kts 253°
2026-04-21 15:08 36.98903 7.84858 2477 ft 131 kts 231°
2026-04-21 15:08 36.98098 7.84364 2494 ft 132 kts 192°
2026-04-21 15:08 36.97190 7.84184 2485 ft 131 kts 190°
2026-04-21 15:08 36.96338 7.84017 2505 ft 119 kts 190°
2026-04-21 15:09 36.95541 7.83862 2503 ft 114 kts 190°
2026-04-21 15:09 36.94753 7.83710 2490 ft 112 kts 191°
2026-04-21 15:09 36.94010 7.83568 2482 ft 105 kts 190°
2026-04-21 15:09 36.93226 7.83416 2086 ft 122 kts 189°
2026-04-21 15:10 36.92298 7.83123 1175 ft 151 kts 201°
2026-04-21 15:10 36.91412 7.82751 1150 ft 126 kts 198°
2026-04-21 15:10 36.90625 7.82367 987 ft 118 kts 199°
2026-04-21 15:10 36.89849 7.82101 789 ft 118 kts 191°
2026-04-21 15:11 36.89033 7.81919 727 ft 116 kts 180°
2026-04-21 15:11 36.88255 7.81836 878 ft 114 kts 182°
2026-04-21 15:11 36.87408 7.81724 669 ft 135 kts 184°
2026-04-21 15:11 36.86419 7.81567 444 ft 137 kts 185°
2026-04-21 15:12 36.85540 7.81432 457 ft 129 kts 184°
2026-04-21 15:12 36.84663 7.81301 41 ft 120 kts 185°
2026-04-21 15:12 36.83958 7.81207 8 ft 86 kts 191°
2026-04-21 15:12 36.83453 7.81120 8 ft 56 kts 186°
2026-04-21 15:13 36.83110 7.81065 12 ft 45 kts 188°
2026-04-21 15:13 36.82833 7.81019 14 ft 36 kts 184°
2026-04-21 15:13 36.82605 7.80985 12 ft 31 kts 189°
2026-04-21 15:13 36.82404 7.80955 11 ft 28 kts 189°
2026-04-21 15:14 36.82218 7.80932 9 ft 27 kts 186°
2026-04-21 15:14 36.82073 7.81025 12 ft 21 kts 135°
2026-04-21 15:14 36.81969 7.81129 14 ft 18 kts 133°
2026-04-21 15:14 36.81916 7.81228 14 ft 12 kts 138°
2026-04-21 15:15 36.81878 7.81227 14 ft 0 kts 221°